Year,Month,Day,Hour,Minute,Value (Times are PST for temperature in C)
2008,06,22,00,00,17.30
2008,06,22,00,01,17.30
2008,06,22,00,02,17.20
2008,06,22,00,03,17.20
2008,06,22,00,04,17.10
2008,06,22,00,05,17.00
2008,06,22,00,06,17.00
2008,06,22,00,07,17.00
2008,06,22,00,08,16.90
2008,06,22,00,09,16.90
2008,06,22,00,10,16.80
2008,06,22,00,11,16.80
2008,06,22,00,12,16.80
2008,06,22,01,02,16.60
2008,06,22,01,03,16.60
2008,06,22,01,04,16.70
2008,06,22,01,05,16.70
2008,06,22,01,06,16.70
2008,06,22,01,07,16.70
2008,06,22,01,08,16.70
2008,06,22,01,09,16.70
2008,06,22,01,10,16.70
2008,06,22,01,11,16.70
2008,06,22,01,12,16.70
2008,06,22,01,13,16.70
2008,06,22,01,14,16.70
2008,06,22,01,15,16.70
2008,06,22,01,16,16.60
2008,06,22,01,17,16.60
2008,06,22,01,18,16.60
2008,06,22,01,19,16.60
2008,06,22,01,20,16.50
2008,06,22,01,21,16.40
2008,06,22,01,22,16.40
2008,06,22,01,23,16.40
2008,06,22,01,24,16.40
2008,06,22,01,25,16.40
2008,06,22,01,26,16.30
2008,06,22,01,27,16.30
2008,06,22,01,28,16.30
2008,06,22,01,29,16.20
2008,06,22,01,30,16.20
2008,06,22,01,31,16.10
2008,06,22,01,32,16.10
2008,06,22,01,33,16.00
2008,06,22,01,34,15.90
2008,06,22,01,35,15.90
2008,06,22,01,36,15.80
2008,06,22,01,37,15.80
2008,06,22,01,38,15.80
2008,06,22,01,39,15.80
2008,06,22,01,40,15.80
2008,06,22,01,41,15.80
2008,06,22,01,42,15.70
2008,06,22,01,43,15.70
2008,06,22,01,44,15.70
2008,06,22,01,45,15.70
2008,06,22,01,46,15.60
2008,06,22,01,47,15.60
2008,06,22,01,48,15.60
2008,06,22,01,49,15.60
2008,06,22,01,50,15.60
2008,06,22,01,51,15.50
2008,06,22,01,52,15.50
2008,06,22,01,53,15.50
2008,06,22,01,54,15.40
2008,06,22,01,55,15.40
2008,06,22,01,56,15.40
2008,06,22,01,57,15.30
2008,06,22,01,58,15.30
2008,06,22,01,59,15.30
2008,06,22,02,00,15.20
2008,06,22,02,01,15.20
2008,06,22,02,02,15.10
2008,06,22,02,03,15.10
2008,06,22,02,04,15.00
2008,06,22,02,05,14.90
2008,06,22,02,06,14.90
2008,06,22,02,07,14.80
2008,06,22,02,08,14.80
2008,06,22,02,09,14.80
2008,06,22,02,10,14.70
2008,06,22,02,11,14.60
2008,06,22,02,12,14.60
2008,06,22,02,13,14.50
2008,06,22,02,14,14.50
2008,06,22,02,15,14.40
2008,06,22,02,16,14.40
2008,06,22,02,17,14.30
2008,06,22,02,18,14.30
2008,06,22,02,19,14.20
2008,06,22,02,20,14.20
2008,06,22,02,21,14.10
2008,06,22,02,22,14.10
2008,06,22,02,23,14.00
2008,06,22,02,24,14.00
2008,06,22,02,25,13.90
2008,06,22,02,26,13.90
2008,06,22,02,27,13.80
2008,06,22,02,28,13.80
2008,06,22,02,29,13.70
2008,06,22,02,30,13.70
2008,06,22,02,31,13.70
2008,06,22,02,32,13.70
2008,06,22,02,33,13.60
2008,06,22,02,34,13.60
2008,06,22,02,35,13.50
2008,06,22,02,36,13.50
2008,06,22,02,37,13.50
2008,06,22,02,38,13.50
2008,06,22,02,39,13.40
2008,06,22,02,40,13.40
2008,06,22,02,41,13.30
2008,06,22,02,42,13.30
2008,06,22,02,43,13.30
2008,06,22,02,44,13.30
2008,06,22,02,45,13.30
2008,06,22,02,46,13.20
2008,06,22,02,47,13.20
2008,06,22,02,48,13.20
2008,06,22,02,49,13.10
2008,06,22,02,50,13.10
2008,06,22,02,51,13.10
2008,06,22,02,52,13.10
2008,06,22,02,53,13.10
2008,06,22,02,54,13.00
2008,06,22,02,55,13.00
2008,06,22,02,56,13.00
2008,06,22,02,57,13.00
2008,06,22,02,58,12.90
2008,06,22,02,59,12.90
2008,06,22,03,00,12.90
2008,06,22,03,01,13.00
2008,06,22,03,02,13.00
2008,06,22,03,03,13.00
2008,06,22,03,04,13.00
2008,06,22,03,05,13.00
2008,06,22,03,06,13.00
2008,06,22,03,07,13.00
2008,06,22,03,08,13.00
2008,06,22,03,09,13.00
2008,06,22,03,10,13.00
2008,06,22,03,11,13.00
2008,06,22,03,12,13.00
2008,06,22,03,13,12.90
2008,06,22,03,14,12.90
2008,06,22,03,15,12.90
2008,06,22,03,16,12.80
2008,06,22,03,17,12.80
2008,06,22,03,18,12.80
2008,06,22,03,19,12.70
2008,06,22,03,20,12.70
2008,06,22,03,21,12.60
2008,06,22,03,22,12.60
2008,06,22,03,23,12.50
2008,06,22,03,24,12.50
2008,06,22,03,25,12.40
2008,06,22,03,26,12.40
2008,06,22,03,27,12.40
2008,06,22,03,28,12.30
2008,06,22,03,29,12.30
2008,06,22,03,30,12.30
2008,06,22,03,31,12.30
2008,06,22,03,32,12.30
2008,06,22,03,33,12.30
2008,06,22,03,34,12.30
2008,06,22,03,35,12.30
2008,06,22,03,36,12.20
2008,06,22,03,37,12.20
2008,06,22,03,38,12.20
2008,06,22,03,39,12.10
2008,06,22,03,40,12.10
2008,06,22,03,41,12.10
2008,06,22,03,42,12.10
2008,06,22,03,43,12.00
2008,06,22,03,44,12.00
2008,06,22,03,45,12.00
2008,06,22,03,46,12.00
2008,06,22,03,47,11.90
2008,06,22,03,48,11.90
2008,06,22,03,49,11.90
2008,06,22,03,50,11.90
2008,06,22,03,51,11.80
2008,06,22,03,52,11.80
2008,06,22,03,53,11.80
2008,06,22,03,54,11.80
2008,06,22,03,55,11.80
2008,06,22,03,56,11.80
2008,06,22,03,57,11.80
2008,06,22,03,58,11.70
2008,06,22,03,59,11.70
2008,06,22,04,00,11.70
2008,06,22,04,01,11.60
2008,06,22,04,02,11.60
2008,06,22,04,03,11.60
2008,06,22,04,04,11.60
2008,06,22,04,05,11.60
2008,06,22,04,06,11.60
2008,06,22,04,07,11.60
2008,06,22,04,08,11.40
2008,06,22,04,09,11.40
2008,06,22,04,10,11.40
2008,06,22,04,11,11.40
2008,06,22,04,12,11.40
2008,06,22,04,13,11.40
2008,06,22,04,14,11.40
2008,06,22,04,15,11.40
2008,06,22,04,16,11.40
2008,06,22,04,17,11.30
2008,06,22,04,18,11.30
2008,06,22,04,19,11.30
2008,06,22,04,20,11.30
2008,06,22,04,21,11.20
2008,06,22,04,22,11.20
2008,06,22,04,23,11.20
2008,06,22,04,24,11.10
2008,06,22,04,25,11.10
2008,06,22,04,26,11.10
2008,06,22,04,27,11.10
2008,06,22,04,28,11.10
2008,06,22,04,29,11.10
2008,06,22,04,30,11.00
2008,06,22,04,31,10.90
2008,06,22,04,32,10.90
2008,06,22,04,33,10.90
2008,06,22,04,34,10.90
2008,06,22,04,35,10.90
2008,06,22,04,36,10.90
2008,06,22,04,37,10.90
2008,06,22,04,38,10.90
2008,06,22,04,39,10.80
2008,06,22,04,40,10.80
2008,06,22,04,41,10.80
2008,06,22,04,42,10.80
2008,06,22,04,43,10.80
2008,06,22,04,44,10.70
2008,06,22,04,45,10.70
2008,06,22,04,46,10.70
2008,06,22,04,47,10.70
2008,06,22,04,48,10.60
2008,06,22,04,49,10.60
2008,06,22,04,50,10.60
2008,06,22,04,51,10.60
2008,06,22,04,52,10.60
2008,06,22,04,53,10.60
2008,06,22,04,54,10.60
2008,06,22,04,55,10.50
2008,06,22,04,56,10.40
2008,06,22,04,57,10.40
2008,06,22,04,58,10.40
2008,06,22,04,59,10.40
2008,06,22,05,00,10.40
2008,06,22,05,01,10.40
2008,06,22,05,02,10.40
2008,06,22,05,03,10.40
2008,06,22,05,04,10.30
2008,06,22,05,05,10.30
2008,06,22,05,06,10.30
2008,06,22,05,07,10.30
2008,06,22,05,08,10.20
2008,06,22,05,09,10.20
2008,06,22,05,10,10.20
2008,06,22,05,11,10.20
2008,06,22,05,12,10.10
2008,06,22,05,13,10.10
2008,06,22,05,14,10.10
2008,06,22,05,15,10.10
2008,06,22,05,16,10.10
2008,06,22,05,17,10.10
2008,06,22,05,18,10.10
2008,06,22,05,19,10.00
2008,06,22,05,20,9.90
2008,06,22,05,21,9.90
2008,06,22,05,22,9.90
2008,06,22,05,23,9.90
2008,06,22,05,24,9.90
2008,06,22,05,25,9.90
2008,06,22,05,26,9.90
2008,06,22,05,27,9.80
2008,06,22,05,28,9.80
2008,06,22,05,29,9.80
2008,06,22,05,30,9.80
2008,06,22,05,31,9.70
2008,06,22,05,32,9.70
2008,06,22,05,33,9.70
2008,06,22,05,34,9.70
2008,06,22,05,35,9.70
2008,06,22,05,36,9.70
2008,06,22,05,37,9.70
2008,06,22,05,38,9.70
2008,06,22,05,39,9.70
2008,06,22,05,40,9.70
2008,06,22,05,41,9.70
2008,06,22,05,42,9.70
2008,06,22,05,43,9.60
2008,06,22,05,44,9.60
2008,06,22,05,45,9.60
2008,06,22,05,46,9.60
2008,06,22,05,47,9.60
2008,06,22,05,48,9.60
2008,06,22,05,49,9.60
2008,06,22,05,50,9.60
2008,06,22,05,51,9.60
2008,06,22,05,52,9.60
2008,06,22,05,53,9.60
2008,06,22,05,54,9.50
2008,06,22,05,55,9.50
2008,06,22,05,56,9.60
2008,06,22,05,57,9.60
2008,06,22,05,58,9.60
2008,06,22,05,59,9.60
2008,06,22,06,00,9.60
2008,06,22,06,01,9.60
2008,06,22,06,02,9.70
2008,06,22,06,03,9.70
2008,06,22,06,04,9.70
2008,06,22,06,05,9.70
2008,06,22,06,06,9.70
2008,06,22,06,07,9.70
2008,06,22,06,08,9.70
2008,06,22,06,09,9.70
2008,06,22,06,10,9.70
2008,06,22,06,11,9.70
2008,06,22,06,12,9.70
2008,06,22,06,13,9.70
2008,06,22,06,14,9.70
2008,06,22,06,15,9.70
2008,06,22,06,16,9.70
2008,06,22,06,17,9.70
2008,06,22,06,18,9.70
2008,06,22,06,19,9.80
2008,06,22,06,20,9.80
2008,06,22,06,21,9.90
2008,06,22,06,22,9.90
2008,06,22,06,23,9.90
2008,06,22,06,24,9.90
2008,06,22,06,25,10.00
2008,06,22,06,26,10.10
2008,06,22,06,27,10.10
2008,06,22,06,28,10.10
2008,06,22,06,29,10.10
2008,06,22,06,30,10.20
2008,06,22,06,31,10.20
2008,06,22,06,32,10.30
2008,06,22,06,33,10.30
2008,06,22,06,34,10.40
2008,06,22,06,35,10.50
2008,06,22,06,36,10.60
2008,06,22,06,37,10.70
2008,06,22,06,38,10.70
2008,06,22,06,39,10.80
2008,06,22,06,40,10.80
2008,06,22,06,41,10.90
2008,06,22,06,42,10.90
2008,06,22,06,43,10.90
2008,06,22,06,44,10.90
2008,06,22,06,45,11.00
2008,06,22,06,46,11.10
2008,06,22,06,47,11.10
2008,06,22,06,48,11.10
2008,06,22,06,49,11.20
2008,06,22,06,50,11.30
2008,06,22,06,51,11.40
2008,06,22,06,52,11.50
2008,06,22,06,53,11.60
2008,06,22,06,54,11.70
2008,06,22,06,55,11.80
2008,06,22,06,56,11.80
2008,06,22,06,57,11.90
2008,06,22,06,58,11.90
2008,06,22,06,59,12.00
2008,06,22,07,00,12.00
2008,06,22,07,01,12.10
2008,06,22,07,02,12.10
2008,06,22,07,03,12.20
2008,06,22,07,04,12.20
2008,06,22,07,05,12.30
2008,06,22,07,06,12.30
2008,06,22,07,07,12.40
2008,06,22,07,08,12.50
2008,06,22,07,09,12.50
2008,06,22,07,10,12.60
2008,06,22,07,11,12.60
2008,06,22,07,12,12.70
2008,06,22,07,13,12.70
2008,06,22,07,14,12.80
2008,06,22,07,15,12.80
2008,06,22,07,16,12.80
2008,06,22,07,17,12.90
2008,06,22,07,18,12.90
2008,06,22,07,19,12.90
2008,06,22,07,20,13.00
2008,06,22,07,21,13.00
2008,06,22,07,22,13.00
2008,06,22,07,23,13.00
2008,06,22,07,24,13.10
2008,06,22,07,25,13.10
2008,06,22,07,26,13.10
2008,06,22,07,27,13.20
2008,06,22,07,28,13.20
2008,06,22,07,29,13.20
2008,06,22,07,30,13.20
2008,06,22,07,31,13.20
2008,06,22,07,32,13.30
2008,06,22,07,33,13.30
2008,06,22,07,34,13.30
2008,06,22,07,35,13.30
2008,06,22,07,36,13.30
2008,06,22,07,37,13.30
2008,06,22,07,38,13.30
2008,06,22,07,39,13.30
2008,06,22,07,40,13.30
2008,06,22,07,41,13.40
2008,06,22,07,42,13.40
2008,06,22,07,43,13.40
2008,06,22,07,44,13.40
2008,06,22,07,45,13.40
2008,06,22,07,46,13.40
2008,06,22,07,47,13.40
2008,06,22,07,48,13.50
2008,06,22,07,49,13.50
2008,06,22,07,50,13.50
2008,06,22,07,51,13.50
2008,06,22,07,52,13.50
2008,06,22,07,53,13.50
2008,06,22,07,54,13.60
2008,06,22,07,55,13.60
2008,06,22,07,56,13.60
2008,06,22,07,57,13.60
2008,06,22,07,58,13.60
2008,06,22,07,59,13.60
2008,06,22,08,00,13.60
2008,06,22,08,01,13.70
2008,06,22,08,02,13.70
2008,06,22,08,03,13.70
2008,06,22,08,04,13.70
2008,06,22,08,05,13.70
2008,06,22,08,06,13.70
2008,06,22,08,07,13.70
2008,06,22,08,08,13.80
2008,06,22,08,09,13.80
2008,06,22,08,10,13.80
2008,06,22,08,11,13.80
2008,06,22,08,12,13.80
2008,06,22,08,13,13.80
2008,06,22,08,14,13.90
2008,06,22,08,15,13.90
2008,06,22,08,16,13.90
2008,06,22,08,17,13.90
2008,06,22,08,18,13.90
2008,06,22,08,19,13.90
2008,06,22,08,20,13.90
2008,06,22,08,21,13.90
2008,06,22,08,22,13.90
2008,06,22,08,23,14.00
2008,06,22,08,24,14.00
2008,06,22,08,25,14.00
2008,06,22,08,26,14.00
2008,06,22,08,27,14.00
2008,06,22,08,28,14.10
2008,06,22,08,29,14.10
2008,06,22,08,30,14.10
2008,06,22,08,31,14.10
2008,06,22,08,32,14.10
2008,06,22,08,33,14.20
2008,06,22,08,34,14.20
2008,06,22,08,35,14.20
2008,06,22,08,36,14.20
2008,06,22,08,37,14.20
2008,06,22,08,38,14.20
2008,06,22,08,39,14.20
2008,06,22,08,40,14.20
2008,06,22,08,41,14.20
2008,06,22,08,42,14.20
2008,06,22,08,43,14.20
2008,06,22,08,44,14.20
2008,06,22,08,45,14.20
2008,06,22,08,46,14.30
2008,06,22,08,47,14.30
2008,06,22,08,48,14.30
2008,06,22,08,49,14.40
2008,06,22,08,50,14.40
2008,06,22,08,51,14.40
2008,06,22,08,52,14.50
2008,06,22,08,53,14.50
2008,06,22,08,54,14.60
2008,06,22,08,55,14.60
2008,06,22,08,56,14.60
2008,06,22,08,57,14.60
2008,06,22,08,58,14.60
2008,06,22,08,59,14.70
2008,06,22,09,00,14.70
2008,06,22,09,01,14.70
2008,06,22,09,02,14.70
2008,06,22,09,03,14.80
2008,06,22,09,04,14.80
2008,06,22,09,05,14.80
2008,06,22,09,06,14.80
2008,06,22,09,07,14.80
2008,06,22,09,08,14.80
2008,06,22,09,09,14.80
2008,06,22,09,10,14.80
2008,06,22,09,11,14.80
2008,06,22,09,12,14.80
2008,06,22,09,13,14.80
2008,06,22,09,14,14.90
2008,06,22,09,15,14.90
2008,06,22,09,16,14.90
2008,06,22,09,17,15.00
2008,06,22,09,18,15.00
2008,06,22,09,19,15.10
2008,06,22,09,20,15.10
2008,06,22,09,21,15.10
2008,06,22,09,22,15.10
2008,06,22,09,23,15.10
2008,06,22,09,24,15.10
2008,06,22,09,25,15.10
2008,06,22,09,26,15.20
2008,06,22,09,27,15.20
2008,06,22,09,28,15.20
2008,06,22,09,29,15.20
2008,06,22,09,30,15.20
2008,06,22,09,31,15.30
2008,06,22,09,32,15.30
2008,06,22,09,33,15.30
2008,06,22,09,34,15.30
2008,06,22,09,35,15.30
2008,06,22,09,36,15.30
2008,06,22,09,37,15.40
2008,06,22,09,38,15.40
2008,06,22,09,39,15.40
2008,06,22,09,40,15.50
2008,06,22,09,41,15.50
2008,06,22,09,42,15.50
2008,06,22,09,43,15.50
2008,06,22,09,44,15.50
2008,06,22,09,45,15.60
2008,06,22,09,46,15.60
2008,06,22,09,47,15.70
2008,06,22,09,48,15.80
2008,06,22,09,49,15.80
2008,06,22,09,50,15.80
2008,06,22,09,51,15.80
2008,06,22,09,52,15.80
2008,06,22,09,53,15.90
2008,06,22,09,54,15.90
2008,06,22,09,55,16.00
2008,06,22,09,56,16.10
2008,06,22,09,57,16.10
2008,06,22,09,58,16.20
2008,06,22,09,59,16.20
2008,06,22,10,00,16.20
2008,06,22,10,01,16.20
2008,06,22,10,02,16.10
2008,06,22,10,03,16.10
2008,06,22,10,04,16.10
2008,06,22,10,05,16.20
2008,06,22,10,06,16.20
2008,06,22,10,07,16.20
2008,06,22,10,08,16.20
2008,06,22,10,09,16.10
2008,06,22,10,10,16.10
2008,06,22,10,11,16.10
2008,06,22,10,12,16.10
2008,06,22,10,13,16.10
2008,06,22,10,14,16.00
2008,06,22,10,15,15.90
2008,06,22,10,16,15.90
2008,06,22,10,17,15.90
2008,06,22,10,18,16.00
2008,06,22,10,19,16.10
2008,06,22,10,20,16.10
2008,06,22,10,21,16.10
2008,06,22,10,22,16.10
2008,06,22,10,23,16.10
2008,06,22,10,24,16.10
2008,06,22,10,25,16.10
2008,06,22,10,26,16.10
2008,06,22,10,27,16.10
2008,06,22,10,28,16.00
2008,06,22,10,29,15.90
2008,06,22,10,30,15.90
2008,06,22,10,31,15.90
2008,06,22,10,32,16.00
2008,06,22,10,33,16.10
2008,06,22,10,34,16.10
2008,06,22,10,35,16.00
2008,06,22,10,36,15.90
2008,06,22,10,37,15.80
2008,06,22,10,38,15.80
2008,06,22,10,39,15.90
2008,06,22,10,40,15.90
2008,06,22,10,41,16.00
2008,06,22,10,42,16.10
2008,06,22,10,43,16.10
2008,06,22,10,44,16.10
2008,06,22,10,45,16.10
2008,06,22,10,46,16.10
2008,06,22,10,47,16.10
2008,06,22,10,48,16.10
2008,06,22,10,49,16.20
2008,06,22,10,50,16.20
2008,06,22,10,51,16.20
2008,06,22,10,52,16.30
2008,06,22,10,53,16.30
2008,06,22,10,54,16.40
2008,06,22,10,55,16.40
2008,06,22,10,56,16.40
2008,06,22,10,57,16.60
2008,06,22,10,58,16.70
2008,06,22,10,59,16.70
2008,06,22,11,00,16.80
2008,06,22,11,01,16.90
2008,06,22,11,02,16.90
2008,06,22,11,03,17.00
2008,06,22,11,04,17.00
2008,06,22,11,05,17.00
2008,06,22,11,06,17.00
2008,06,22,11,07,17.00
2008,06,22,11,08,17.10
2008,06,22,11,09,17.20
2008,06,22,11,10,17.30
2008,06,22,11,11,17.20
2008,06,22,11,12,17.00
2008,06,22,11,13,17.00
2008,06,22,11,14,17.00
2008,06,22,11,15,17.10
2008,06,22,11,16,17.10
2008,06,22,11,17,17.00
2008,06,22,11,18,17.00
2008,06,22,11,19,17.00
2008,06,22,11,20,17.10
2008,06,22,11,21,17.30
2008,06,22,11,22,17.40
2008,06,22,11,23,17.50
2008,06,22,11,24,17.50
2008,06,22,11,25,17.50
2008,06,22,11,26,17.50
2008,06,22,11,27,17.60
2008,06,22,11,28,17.60
2008,06,22,11,29,17.70
2008,06,22,11,30,17.80
2008,06,22,11,31,17.90
2008,06,22,11,32,17.90
2008,06,22,11,33,17.90
2008,06,22,11,34,17.80
2008,06,22,11,35,17.80
2008,06,22,11,36,17.80
2008,06,22,11,37,17.70
2008,06,22,11,38,17.80
2008,06,22,11,39,17.90
2008,06,22,11,40,18.00
2008,06,22,11,41,18.10
2008,06,22,11,42,18.10
2008,06,22,11,43,17.90
2008,06,22,11,44,17.90
2008,06,22,11,45,17.80
2008,06,22,11,46,17.80
2008,06,22,11,47,17.70
2008,06,22,11,48,17.70
2008,06,22,11,49,17.80
2008,06,22,11,50,17.70
2008,06,22,11,51,17.60
2008,06,22,11,52,17.70
2008,06,22,11,53,17.70
2008,06,22,11,54,17.80
2008,06,22,11,55,17.90
2008,06,22,11,56,18.00
2008,06,22,11,57,18.20
2008,06,22,11,58,18.20
2008,06,22,11,59,18.00
2008,06,22,12,00,17.80
2008,06,22,12,01,17.70
2008,06,22,12,02,17.60
2008,06,22,12,03,17.60
2008,06,22,12,04,17.70
2008,06,22,12,05,17.70
2008,06,22,12,06,17.70
2008,06,22,12,07,17.80
2008,06,22,12,08,17.80
2008,06,22,12,09,17.90
2008,06,22,12,10,17.90
2008,06,22,12,11,17.80
2008,06,22,12,12,17.70
2008,06,22,12,13,17.70
2008,06,22,12,14,17.70
2008,06,22,12,15,17.70
2008,06,22,12,16,17.80
2008,06,22,12,17,17.90
2008,06,22,12,18,18.00
2008,06,22,12,19,18.10
2008,06,22,12,20,18.20
2008,06,22,12,21,18.40
2008,06,22,12,22,18.50
2008,06,22,12,23,18.50
2008,06,22,12,24,18.50
2008,06,22,12,25,18.50
2008,06,22,12,26,18.50
2008,06,22,12,27,18.60
2008,06,22,12,28,18.60
2008,06,22,12,29,18.70
2008,06,22,12,30,18.70
2008,06,22,12,31,18.80
2008,06,22,12,32,18.70
2008,06,22,12,33,18.50
2008,06,22,12,34,18.40
2008,06,22,12,35,18.20
2008,06,22,12,36,18.10
2008,06,22,12,37,18.00
2008,06,22,12,38,18.00
2008,06,22,12,39,18.10
2008,06,22,12,40,18.10
2008,06,22,12,41,18.10
2008,06,22,12,42,18.00
2008,06,22,12,43,17.90
2008,06,22,12,44,17.90
2008,06,22,12,45,17.80
2008,06,22,12,46,17.70
2008,06,22,12,47,17.70
2008,06,22,12,48,17.60
2008,06,22,12,49,17.60
2008,06,22,12,50,17.60
2008,06,22,12,51,17.70
2008,06,22,12,52,17.80
2008,06,22,12,53,17.80
2008,06,22,12,54,17.90
2008,06,22,12,55,18.10
2008,06,22,12,56,18.20
2008,06,22,12,57,18.30
2008,06,22,12,58,18.30
2008,06,22,12,59,18.30
2008,06,22,13,00,18.40
2008,06,22,13,01,18.40
2008,06,22,13,02,18.40
2008,06,22,13,03,18.20
2008,06,22,13,04,18.10
2008,06,22,13,05,18.10
2008,06,22,13,06,18.10
2008,06,22,13,07,18.10
2008,06,22,13,08,18.20
2008,06,22,13,09,18.40
2008,06,22,13,10,18.50
2008,06,22,13,11,18.60
2008,06,22,13,12,18.60
2008,06,22,13,13,18.60
2008,06,22,13,14,18.50
2008,06,22,13,15,18.50
2008,06,22,13,16,18.50
2008,06,22,13,17,18.50
2008,06,22,13,18,18.50
2008,06,22,13,19,18.60
2008,06,22,13,20,18.60
2008,06,22,13,21,18.80
2008,06,22,13,22,18.90
2008,06,22,13,23,18.90
2008,06,22,13,24,18.90
2008,06,22,13,25,19.10
2008,06,22,13,26,19.10
2008,06,22,13,27,19.00
2008,06,22,13,28,18.90
2008,06,22,13,29,18.80
2008,06,22,13,30,18.80
2008,06,22,13,31,18.70
2008,06,22,13,32,18.70
2008,06,22,13,33,18.70
2008,06,22,13,34,18.60
2008,06,22,13,35,18.50
2008,06,22,13,36,18.40
2008,06,22,13,37,18.30
2008,06,22,13,38,18.10
2008,06,22,13,39,18.00
2008,06,22,13,40,17.90
2008,06,22,13,41,17.90
2008,06,22,13,42,17.90
2008,06,22,13,43,18.00
2008,06,22,13,44,18.10
2008,06,22,13,45,18.10
2008,06,22,13,46,18.20
2008,06,22,13,47,18.30
2008,06,22,13,48,18.50
2008,06,22,13,49,18.70
2008,06,22,13,50,18.90
2008,06,22,13,51,19.00
2008,06,22,13,52,19.10
2008,06,22,13,53,19.30
2008,06,22,13,54,19.40
2008,06,22,13,55,19.60
2008,06,22,13,56,19.60
2008,06,22,13,57,19.70
2008,06,22,13,58,19.80
2008,06,22,13,59,19.80
2008,06,22,14,00,19.90
2008,06,22,14,01,19.90
2008,06,22,14,02,19.90
2008,06,22,14,03,19.80
2008,06,22,14,04,19.70
2008,06,22,14,05,19.60
2008,06,22,14,06,19.60
2008,06,22,14,07,19.60
2008,06,22,14,08,19.60
2008,06,22,14,09,19.40
2008,06,22,14,10,19.30
2008,06,22,14,11,19.10
2008,06,22,14,12,19.10
2008,06,22,14,13,19.10
2008,06,22,14,14,19.10
2008,06,22,14,15,19.10
2008,06,22,14,16,19.10
2008,06,22,14,17,19.10
2008,06,22,14,18,19.20
2008,06,22,14,19,19.10
2008,06,22,14,20,19.20
2008,06,22,14,21,19.10
2008,06,22,14,22,19.10
2008,06,22,14,23,19.10
2008,06,22,14,24,19.10
2008,06,22,14,25,19.10
2008,06,22,14,26,19.20
2008,06,22,14,27,19.10
2008,06,22,14,28,19.10
2008,06,22,14,29,18.90
2008,06,22,14,30,18.90
2008,06,22,14,31,18.80
2008,06,22,14,32,18.80
2008,06,22,14,33,18.90
2008,06,22,14,34,18.90
2008,06,22,14,35,18.90
2008,06,22,14,36,18.90
2008,06,22,14,37,18.80
2008,06,22,14,38,18.80
2008,06,22,14,39,18.70
2008,06,22,14,40,18.70
2008,06,22,14,41,18.80
2008,06,22,14,42,18.90
2008,06,22,14,43,18.90
2008,06,22,14,44,18.90
2008,06,22,14,45,18.90
2008,06,22,14,46,19.10
2008,06,22,14,47,19.10
2008,06,22,14,48,19.10
2008,06,22,14,49,19.10
2008,06,22,14,50,19.10
2008,06,22,14,51,19.10
2008,06,22,14,52,19.10
2008,06,22,14,53,19.10
2008,06,22,14,54,19.10
2008,06,22,14,55,19.10
2008,06,22,14,56,19.10
2008,06,22,14,57,19.10
2008,06,22,14,58,19.10
2008,06,22,14,59,19.10
2008,06,22,15,00,19.10
2008,06,22,15,01,19.20
2008,06,22,15,02,19.20
2008,06,22,15,03,19.20
2008,06,22,15,04,19.30
2008,06,22,15,05,19.40
2008,06,22,15,06,19.50
2008,06,22,15,07,19.60
2008,06,22,15,08,19.70
2008,06,22,15,09,19.80
2008,06,22,15,10,19.90
2008,06,22,15,11,20.00
2008,06,22,15,12,20.10
2008,06,22,15,13,20.20
2008,06,22,15,14,20.20
2008,06,22,15,15,20.20
2008,06,22,15,16,20.20
2008,06,22,15,17,20.20
2008,06,22,15,18,20.20
2008,06,22,15,19,20.20
2008,06,22,15,20,20.20
2008,06,22,15,21,20.20
2008,06,22,15,22,20.20
2008,06,22,15,23,20.30
2008,06,22,15,24,20.30
2008,06,22,15,25,20.30
2008,06,22,15,26,20.40
2008,06,22,15,27,20.40
2008,06,22,15,28,20.40
2008,06,22,15,29,20.30
2008,06,22,15,30,20.20
2008,06,22,15,31,20.20
2008,06,22,15,32,20.30
2008,06,22,15,33,20.30
2008,06,22,15,34,20.20
2008,06,22,15,35,20.20
2008,06,22,15,36,20.30
2008,06,22,15,37,20.30
2008,06,22,15,38,20.30
2008,06,22,15,39,20.30
2008,06,22,15,40,20.30
2008,06,22,15,41,20.40
2008,06,22,15,42,20.40
2008,06,22,15,43,20.50
2008,06,22,15,44,20.50
2008,06,22,15,45,20.60
2008,06,22,15,46,20.60
2008,06,22,15,47,20.50
2008,06,22,15,48,20.50
2008,06,22,15,49,20.40
2008,06,22,15,50,20.30
2008,06,22,15,51,20.30
2008,06,22,15,52,20.20
2008,06,22,15,53,20.30
2008,06,22,15,54,20.30
2008,06,22,15,55,20.20
2008,06,22,15,56,20.20
2008,06,22,15,57,20.30
2008,06,22,15,58,20.20
2008,06,22,15,59,20.20
2008,06,22,16,00,20.20
2008,06,22,16,01,20.20
2008,06,22,16,02,20.10
2008,06,22,16,03,20.00
2008,06,22,16,04,19.90
2008,06,22,16,05,19.90
2008,06,22,16,06,19.90
2008,06,22,16,07,20.10
2008,06,22,16,08,20.10
2008,06,22,16,09,20.10
2008,06,22,16,10,20.10
2008,06,22,16,11,20.20
2008,06,22,16,12,20.20
2008,06,22,16,13,20.20
2008,06,22,16,14,20.30
2008,06,22,16,15,20.30
2008,06,22,16,16,20.40
2008,06,22,16,17,20.40
2008,06,22,16,18,20.40
2008,06,22,16,19,20.40
2008,06,22,16,20,20.20
2008,06,22,16,21,20.10
2008,06,22,16,22,20.00
2008,06,22,16,23,19.90
2008,06,22,16,24,19.90
2008,06,22,16,25,20.10
2008,06,22,16,26,20.20
2008,06,22,16,27,20.30
2008,06,22,16,28,20.40
2008,06,22,16,29,20.50
2008,06,22,16,30,20.60
2008,06,22,16,31,20.70
2008,06,22,16,32,20.70
2008,06,22,16,33,20.70
2008,06,22,16,34,20.80
2008,06,22,16,35,20.70
2008,06,22,16,36,20.70
2008,06,22,16,37,20.60
2008,06,22,16,38,20.60
2008,06,22,16,39,20.60
2008,06,22,16,40,20.70
2008,06,22,16,41,20.70
2008,06,22,16,42,20.80
2008,06,22,16,43,20.80
2008,06,22,16,44,20.80
2008,06,22,16,45,20.80
2008,06,22,16,46,20.80
2008,06,22,16,47,20.80
2008,06,22,16,48,20.80
2008,06,22,16,49,20.80
2008,06,22,16,50,20.80
2008,06,22,16,51,20.70
2008,06,22,16,52,20.80
2008,06,22,16,53,20.80
2008,06,22,16,54,21.00
2008,06,22,16,55,20.90
2008,06,22,16,56,20.90
2008,06,22,16,57,20.90
2008,06,22,16,58,20.90
2008,06,22,16,59,20.90
2008,06,22,17,00,21.00
2008,06,22,17,01,21.00
2008,06,22,17,02,21.10
2008,06,22,17,03,21.10
2008,06,22,17,04,21.10
2008,06,22,17,05,21.10
2008,06,22,17,06,21.20
2008,06,22,17,07,21.30
2008,06,22,17,08,21.30
2008,06,22,17,09,21.30
2008,06,22,17,10,21.30
2008,06,22,17,11,21.30
2008,06,22,17,12,21.20
2008,06,22,17,13,21.20
2008,06,22,17,14,21.20
2008,06,22,17,15,21.10
2008,06,22,17,16,21.00
2008,06,22,17,17,21.00
2008,06,22,17,18,21.00
2008,06,22,17,19,20.90
2008,06,22,17,20,20.80
2008,06,22,17,21,20.70
2008,06,22,17,22,20.60
2008,06,22,17,23,20.50
2008,06,22,17,24,20.60
2008,06,22,17,25,20.60
2008,06,22,17,26,20.60
2008,06,22,17,27,20.70
2008,06,22,17,28,20.70
2008,06,22,17,29,20.70
2008,06,22,17,30,20.80
2008,06,22,17,31,20.90
2008,06,22,17,32,21.00
2008,06,22,17,33,21.10
2008,06,22,17,34,21.10
2008,06,22,17,35,21.10
2008,06,22,17,36,21.10
2008,06,22,17,37,21.10
2008,06,22,17,38,21.10
2008,06,22,17,39,21.10
2008,06,22,17,40,21.00
2008,06,22,17,41,21.00
2008,06,22,17,42,21.00
2008,06,22,17,43,21.00
2008,06,22,17,44,21.00
2008,06,22,17,45,21.10
2008,06,22,17,46,21.20
2008,06,22,17,47,21.30
2008,06,22,17,48,21.50
2008,06,22,17,49,21.60
2008,06,22,17,50,21.70
2008,06,22,17,51,21.90
2008,06,22,17,52,21.90
2008,06,22,17,53,22.00
2008,06,22,17,54,21.90
2008,06,22,17,55,21.80
2008,06,22,17,56,21.70
2008,06,22,17,57,21.60
2008,06,22,17,58,21.60
2008,06,22,17,59,21.50
2008,06,22,18,00,21.40
2008,06,22,18,01,21.20
2008,06,22,18,02,21.10
2008,06,22,18,03,21.10
2008,06,22,18,04,21.10
2008,06,22,18,05,21.20
2008,06,22,18,06,21.30
2008,06,22,18,07,21.30
2008,06,22,18,08,21.20
2008,06,22,18,09,21.20
2008,06,22,18,10,21.20
2008,06,22,18,11,21.10